Погода в Новониколаевке

Россия / Томская область     57°17′57″N   85°51′41″E
темп.,
°C
ветер,
м/с
пор.,
м/с
влажн.,
%
обл.,
%
осадки,
мм/ч
давл.,
гПа
погр.,
м
11 мая, вт
вт1101:00+9ссв226484 0.0 102122
04:00+5ссв257873 0.0 102094
07:00+7ссв27768 0.0 1020198
10:00+14ссв465024 0.0 1019748
13:00+18св5633100 0.0 10183030
16:00+18ссв463492 0.0 10182409
19:00+17ссв57416 0.0 1018909
22:00+11с3116464 0.0 1019236
12 мая, ср
ср1201:00+8ссв29737 0.0 1020189
04:00+7св228017 0.0 101920
07:00+9св13735 0.0 101999
10:00+15всв12505 0.0 1019631
13:00+19юв113634 0.0 10182314
16:00+18зюз213699 0.0 10162275
19:00+18зюз114112 0.0 1016983
22:00+12юв115842 0.0 101610
13 мая, чт
чт1301:00+12ю236392 0.0 101545
04:00+9ю247030 0.0 101457
07:00+11ююз116996 0.0 101443
10:00+15юз334965 0.0 1014694
13:00+17зюз554695 0.1 10131775
16:00+15зюз6856100 0.3 10121357
19:00+11зсз4767100 0.3 1013714
22:00+8зсз278364 0.0 1014309
14 мая, пт
пт1401:00+8зсз2682100 0.0 1013304
04:00+7зсз4108650 0.0 1014418
07:00+6сз4108288 0.0 1015453
10:00+7сз4788100 0.2 10171118
13:00+9ссз575012 0.3 10191494
16:00+12ссз473329 0.0 10191661
19:00+12зсз3738100 0.0 10191559
22:00+8з2851100 0.0 1020223
15 мая, сб
сб1501:00+9юз51353100 0.0 1017622
04:00+10зюз61463100 0.7 1015654
07:00+9зюз6147682 1.6 1015531
10:00+15з586997 0.0 1016930
13:00+15зсз3770100 0.0 10161246
16:00+18зсз375572 0.0 10161631
19:00+19зсз025780 0.0 1015263
22:00+12юв257792 0.1 101580